Time,TemperatureF,DewpointF,PressureIn,WindDirection,WindDirectionDegrees,WindSpeedMPH,WindSpeedGustMPH,Humidity,HourlyPrecipIn,Conditions,Clouds,dailyrainin,SoftwareType,DateUTC
2013-02-07 00:00:00,40.7,39.3,29.64,SSW,203,0.4,1.8,95,0.00,,,0.00,WUHU216HW,2013-02-07 08:00:00,
2013-02-07 00:05:00,40.7,39.3,29.64,NE,45,0.7,0.9,95,0.00,,,0.00,WUHU216HW,2013-02-07 08:05:00,
2013-02-07 00:10:00,40.7,39.3,29.64,North,0,0.0,1.8,95,0.00,,,0.00,WUHU216HW,2013-02-07 08:10:00,
2013-02-07 00:15:00,40.7,39.3,29.65,SSE,158,0.4,1.8,95,0.00,,,0.00,WUHU216HW,2013-02-07 08:15:00,
2013-02-07 00:20:00,40.7,39.3,29.65,NE,45,1.3,2.2,95,0.00,,,0.00,WUHU216HW,2013-02-07 08:20:00,
2013-02-07 00:25:00,40.9,39.5,29.65,East,90,0.0,2.2,95,0.00,,,0.00,WUHU216HW,2013-02-07 08:25:00,
2013-02-07 00:30:00,40.9,39.5,29.65,SSE,158,0.2,1.1,95,0.00,,,0.00,WUHU216HW,2013-02-07 08:30:00,
2013-02-07 00:35:00,40.9,39.5,29.65,NNE,23,1.1,1.1,95,0.00,,,0.00,WUHU216HW,2013-02-07 08:35:00,
2013-02-07 00:40:00,41.2,39.9,29.64,NE,45,1.3,1.6,95,0.00,,,0.00,WUHU216HW,2013-02-07 08:40:00,
2013-02-07 00:45:00,41.2,39.9,29.64,East,90,0.0,1.6,95,0.00,,,0.00,WUHU216HW,2013-02-07 08:45:00,
2013-02-07 00:50:00,41.2,39.9,29.65,SSW,203,1.1,1.3,95,0.00,,,0.00,WUHU216HW,2013-02-07 08:50:00,
2013-02-07 00:55:00,41.2,39.9,29.64,ESE,113,1.3,2.2,95,0.00,,,0.00,WUHU216HW,2013-02-07 08:55:00,
2013-02-07 01:00:00,41.4,40.1,29.64,East,90,0.7,2.2,95,0.00,,,0.00,WUHU216HW,2013-02-07 09:00:00,
2013-02-07 01:05:00,41.4,40.1,29.64,North,0,1.8,1.8,95,0.00,,,0.00,WUHU216HW,2013-02-07 09:05:00,
2013-02-07 01:10:00,41.6,40.2,29.65,South,180,1.1,1.8,95,0.00,,,0.00,WUHU216HW,2013-02-07 09:10:00,
2013-02-07 01:15:00,41.4,40.1,29.65,North,0,0.4,2.2,95,0.00,,,0.00,WUHU216HW,2013-02-07 09:15:00,
2013-02-07 01:20:00,41.4,40.1,29.66,North,0,2.2,2.2,95,0.00,,,0.00,WUHU216HW,2013-02-07 09:20:00,
2013-02-07 01:25:00,41.4,40.1,29.68,WNW,293,1.6,2.7,95,0.00,,,0.00,WUHU216HW,2013-02-07 09:25:00,
2013-02-07 01:30:00,42.3,40.7,29.70,SSW,203,6.5,10.3,94,0.02,,,0.02,WUHU216HW,2013-02-07 09:30:00,
2013-02-07 01:35:00,42.5,40.9,29.71,WNW,293,7.6,12.8,94,0.03,,,0.03,WUHU216HW,2013-02-07 09:35:00,
2013-02-07 01:40:00,42.3,40.7,29.72,ESE,113,9.2,12.8,94,0.04,,,0.04,WUHU216HW,2013-02-07 09:40:00,
2013-02-07 01:45:00,42.1,40.5,29.72,SSW,203,3.6,9.2,94,0.05,,,0.05,WUHU216HW,2013-02-07 09:45:00,
2013-02-07 01:50:00,41.8,39.9,29.72,South,180,4.0,8.7,93,0.06,,,0.06,WUHU216HW,2013-02-07 09:50:00,
2013-02-07 01:55:00,41.6,39.7,29.71,SSE,158,3.4,8.7,93,0.07,,,0.07,WUHU216HW,2013-02-07 09:55:00,
2013-02-07 02:00:00,41.4,39.5,29.72,ESE,113,3.6,6.0,93,0.07,,,0.07,WUHU216HW,2013-02-07 10:00:00,
2013-02-07 02:05:00,41.0,39.2,29.72,South,180,2.5,4.9,93,0.08,,,0.08,WUHU216HW,2013-02-07 10:05:00,
2013-02-07 02:10:00,41.0,39.2,29.72,SSW,203,0.4,4.3,93,0.08,,,0.08,WUHU216HW,2013-02-07 10:10:00,
2013-02-07 02:15:00,40.9,39.0,29.73,SE,135,0.9,4.3,93,0.08,,,0.08,WUHU216HW,2013-02-07 10:15:00,
2013-02-07 02:20:00,40.7,38.8,29.73,ESE,113,2.2,4.3,93,0.08,,,0.08,WUHU216HW,2013-02-07 10:20:00,
2013-02-07 02:25:00,40.7,39.1,29.73,SE,135,1.8,4.3,94,0.07,,,0.08,WUHU216HW,2013-02-07 10:25:00,
2013-02-07 02:30:00,40.7,39.1,29.74,SSE,158,3.6,4.3,94,0.05,,,0.08,WUHU216HW,2013-02-07 10:30:00,
2013-02-07 02:35:00,40.7,39.1,29.74,ESE,113,1.1,3.6,94,0.05,,,0.08,WUHU216HW,2013-02-07 10:35:00,
2013-02-07 02:40:00,40.7,39.1,29.74,East,90,2.2,3.6,94,0.03,,,0.08,WUHU216HW,2013-02-07 10:40:00,
2013-02-07 02:45:00,40.5,38.9,29.75,ENE,68,0.9,2.2,94,0.02,,,0.08,WUHU216HW,2013-02-07 10:45:00,
2013-02-07 02:50:00,40.3,38.7,29.75,East,90,0.9,2.0,94,0.02,,,0.08,WUHU216HW,2013-02-07 10:50:00,
2013-02-07 02:55:00,40.1,38.3,29.75,East,90,1.8,2.0,93,0.01,,,0.08,WUHU216HW,2013-02-07 10:55:00,
2013-02-07 03:00:00,40.1,38.3,29.75,East,90,0.7,2.9,93,0.01,,,0.08,WUHU216HW,2013-02-07 11:00:00,
2013-02-07 03:05:00,40.1,38.5,29.75,East,90,1.1,2.9,94,0.00,,,0.08,WUHU216HW,2013-02-07 11:05:00,
2013-02-07 03:10:00,40.1,38.5,29.75,East,90,1.1,1.6,94,0.00,,,0.08,WUHU216HW,2013-02-07 11:10:00,
2013-02-07 03:15:00,40.0,38.3,29.75,ESE,113,1.1,2.7,94,0.00,,,0.08,WUHU216HW,2013-02-07 11:15:00,
2013-02-07 03:20:00,39.8,38.2,29.75,ESE,113,0.4,2.7,94,0.00,,,0.08,WUHU216HW,2013-02-07 11:20:00,
2013-02-07 03:25:00,39.6,37.7,29.75,SSW,203,0.0,1.1,93,0.00,,,0.08,WUHU216HW,2013-02-07 11:25:00,
2013-02-07 03:30:00,39.6,38.0,29.75,East,90,1.1,1.1,94,0.00,,,0.08,WUHU216HW,2013-02-07 11:30:00,
2013-02-07 03:35:00,39.6,38.0,29.75,East,90,1.1,1.8,94,0.00,,,0.08,WUHU216HW,2013-02-07 11:35:00,
2013-02-07 03:40:00,39.6,38.0,29.75,East,90,1.3,1.8,94,0.00,,,0.08,WUHU216HW,2013-02-07 11:40:00,
2013-02-07 03:45:00,39.8,38.2,29.75,ENE,68,1.8,2.0,94,0.00,,,0.08,WUHU216HW,2013-02-07 11:45:00,
2013-02-07 03:50:00,39.8,38.2,29.75,SE,135,1.1,2.0,94,0.00,,,0.08,WUHU216HW,2013-02-07 11:50:00,
2013-02-07 03:55:00,39.6,38.0,29.75,SSE,158,1.8,1.8,94,0.00,,,0.08,WUHU216HW,2013-02-07 11:55:00,
2013-02-07 04:00:00,39.6,38.0,29.76,SSE,158,0.4,1.8,94,0.00,,,0.08,WUHU216HW,2013-02-07 12:00:00,
2013-02-07 04:05:00,39.4,37.8,29.76,SE,135,1.1,1.1,94,0.00,,,0.08,WUHU216HW,2013-02-07 12:05:00,
2013-02-07 04:10:00,39.4,37.8,29.76,SW,225,4.3,4.3,94,0.00,,,0.08,WUHU216HW,2013-02-07 12:10:00,
2013-02-07 04:15:00,39.6,38.0,29.77,SSE,158,1.6,4.3,94,0.00,,,0.08,WUHU216HW,2013-02-07 12:15:00,
2013-02-07 04:20:00,39.6,38.0,29.77,East,90,0.9,2.5,94,0.00,,,0.08,WUHU216HW,2013-02-07 12:20:00,
2013-02-07 04:25:00,39.6,38.0,29.77,East,90,1.1,1.8,94,0.00,,,0.08,WUHU216HW,2013-02-07 12:25:00,
2013-02-07 04:30:00,39.6,38.0,29.77,ENE,68,1.8,1.8,94,0.00,,,0.08,WUHU216HW,2013-02-07 12:30:00,
2013-02-07 04:35:00,39.4,37.8,29.78,East,90,1.1,1.8,94,0.00,,,0.08,WUHU216HW,2013-02-07 12:35:00,
2013-02-07 04:40:00,39.4,37.8,29.78,SSE,158,3.1,3.1,94,0.00,,,0.08,WUHU216HW,2013-02-07 12:40:00,
2013-02-07 04:45:00,39.4,37.8,29.78,East,90,1.6,3.1,94,0.00,,,0.08,WUHU216HW,2013-02-07 12:45:00,
2013-02-07 04:50:00,39.2,37.4,29.78,SE,135,4.0,4.0,93,0.00,,,0.08,WUHU216HW,2013-02-07 12:50:00,
2013-02-07 04:55:00,39.4,37.8,29.78,ESE,113,1.8,4.0,94,0.00,,,0.08,WUHU216HW,2013-02-07 12:55:00,
2013-02-07 05:00:00,39.4,37.5,29.78,ENE,68,1.1,3.6,93,0.00,,,0.08,WUHU216HW,2013-02-07 13:00:00,
2013-02-07 05:05:00,39.2,37.4,29.79,East,90,1.6,4.3,93,0.00,,,0.08,WUHU216HW,2013-02-07 13:05:00,
2013-02-07 05:10:00,39.2,37.4,29.79,West,270,0.4,4.3,93,0.00,,,0.08,WUHU216HW,2013-02-07 13:10:00,
2013-02-07 05:15:00,39.2,37.4,29.79,ENE,68,1.8,3.4,93,0.00,,,0.08,WUHU216HW,2013-02-07 13:15:00,
2013-02-07 05:20:00,39.2,37.4,29.79,East,90,1.1,3.4,93,0.00,,,0.08,WUHU216HW,2013-02-07 13:20:00,
2013-02-07 05:25:00,39.2,37.6,29.79,ESE,113,0.4,1.8,94,0.00,,,0.08,WUHU216HW,2013-02-07 13:25:00,
2013-02-07 05:30:00,39.2,37.4,29.79,ENE,68,1.8,2.9,93,0.00,,,0.08,WUHU216HW,2013-02-07 13:30:00,
2013-02-07 05:35:00,39.2,37.4,29.80,SSW,203,0.2,2.9,93,0.00,,,0.08,WUHU216HW,2013-02-07 13:35:00,
2013-02-07 05:40:00,38.9,37.0,29.80,SSE,158,0.0,1.6,93,0.00,,,0.08,WUHU216HW,2013-02-07 13:40:00,
2013-02-07 05:45:00,38.7,36.8,29.80,ENE,68,0.0,0.7,93,0.00,,,0.08,WUHU216HW,2013-02-07 13:45:00,
2013-02-07 05:50:00,38.5,36.9,29.80,East,90,0.4,0.9,94,0.00,,,0.08,WUHU216HW,2013-02-07 13:50:00,
2013-02-07 05:55:00,38.5,36.9,29.80,SSE,158,0.7,1.1,94,0.00,,,0.08,WUHU216HW,2013-02-07 13:55:00,
2013-02-07 06:00:00,38.5,36.6,29.80,ESE,113,0.0,1.1,93,0.00,,,0.08,WUHU216HW,2013-02-07 14:00:00,
2013-02-07 06:05:00,38.3,36.7,29.80,ESE,113,0.0,0.9,94,0.00,,,0.08,WUHU216HW,2013-02-07 14:05:00,
2013-02-07 06:10:00,38.2,36.5,29.80,South,180,0.0,1.1,94,0.00,,,0.08,WUHU216HW,2013-02-07 14:10:00,
2013-02-07 06:15:00,37.8,36.2,29.80,ENE,68,0.7,1.1,94,0.00,,,0.08,WUHU216HW,2013-02-07 14:15:00,
2013-02-07 06:20:00,37.6,36.0,29.81,East,90,1.1,1.1,94,0.00,,,0.08,WUHU216HW,2013-02-07 14:20:00,
2013-02-07 06:25:00,37.3,35.6,29.81,ESE,113,1.1,1.6,94,0.00,,,0.08,WUHU216HW,2013-02-07 14:25:00,
2013-02-07 06:30:00,37.3,35.6,29.80,ESE,113,0.7,1.6,94,0.00,,,0.08,WUHU216HW,2013-02-07 14:30:00,
2013-02-07 06:35:00,37.1,35.5,29.80,SSE,158,0.0,1.1,94,0.00,,,0.08,WUHU216HW,2013-02-07 14:35:00,
2013-02-07 06:40:00,36.7,35.1,29.81,SW,225,0.2,1.1,94,0.00,,,0.08,WUHU216HW,2013-02-07 14:40:00,
2013-02-07 06:45:00,36.4,34.7,29.81,SW,225,0.0,0.2,94,0.00,,,0.08,WUHU216HW,2013-02-07 14:45:00,
2013-02-07 06:50:00,36.4,34.7,29.81,SE,135,0.4,0.9,94,0.00,,,0.08,WUHU216HW,2013-02-07 14:50:00,
2013-02-07 06:55:00,36.4,34.7,29.81,SSE,158,0.7,1.3,94,0.00,,,0.08,WUHU216HW,2013-02-07 14:55:00,
2013-02-07 07:00:00,36.2,34.6,29.81,SE,135,1.1,1.3,94,0.01,,,0.09,WUHU216HW,2013-02-07 15:00:00,
2013-02-07 07:05:00,36.2,34.6,29.81,SW,225,0.0,1.8,94,0.01,,,0.09,WUHU216HW,2013-02-07 15:05:00,
2013-02-07 07:10:00,35.6,34.0,29.81,ENE,68,0.4,1.8,94,0.01,,,0.09,WUHU216HW,2013-02-07 15:10:00,
2013-02-07 07:15:00,35.6,34.0,29.81,NE,45,0.0,1.1,94,0.01,,,0.09,WUHU216HW,2013-02-07 15:15:00,
2013-02-07 07:20:00,35.5,33.8,29.81,North,0,0.0,0.9,94,0.01,,,0.09,WUHU216HW,2013-02-07 15:20:00,
2013-02-07 07:25:00,35.3,33.7,29.82,North,0,0.0,0.0,94,0.01,,,0.09,WUHU216HW,2013-02-07 15:25:00,
2013-02-07 07:30:00,35.3,33.7,29.82,North,0,0.0,0.0,94,0.01,,,0.09,WUHU216HW,2013-02-07 15:30:00,
2013-02-07 07:35:00,35.3,33.7,29.82,North,0,0.4,0.4,94,0.01,,,0.09,WUHU216HW,2013-02-07 15:35:00,
2013-02-07 07:40:00,35.5,33.8,29.82,SSW,203,1.1,1.1,94,0.01,,,0.09,WUHU216HW,2013-02-07 15:40:00,
2013-02-07 07:45:00,35.5,33.8,29.83,SE,135,0.0,1.3,94,0.01,,,0.09,WUHU216HW,2013-02-07 15:45:00,
2013-02-07 07:50:00,35.5,33.8,29.82,South,180,0.0,1.3,94,0.01,,,0.09,WUHU216HW,2013-02-07 15:50:00,
2013-02-07 07:55:00,35.3,33.7,29.83,SSE,158,0.7,1.6,94,0.01,,,0.09,WUHU216HW,2013-02-07 15:55:00,
2013-02-07 08:00:00,35.3,33.7,29.83,SE,135,0.0,1.6,94,0.00,,,0.09,WUHU216HW,2013-02-07 16:00:00,
2013-02-07 08:05:00,35.1,33.5,29.83,SW,225,0.2,1.1,94,0.00,,,0.09,WUHU216HW,2013-02-07 16:05:00,
2013-02-07 08:10:00,34.9,33.3,29.84,WNW,293,0.0,1.1,94,0.00,,,0.09,WUHU216HW,2013-02-07 16:10:00,
2013-02-07 08:15:00,34.7,33.1,29.84,ENE,68,0.0,0.0,94,0.00,,,0.09,WUHU216HW,2013-02-07 16:15:00,
2013-02-07 08:20:00,34.6,32.9,29.84,ENE,68,0.0,0.0,94,0.00,,,0.09,WUHU216HW,2013-02-07 16:20:00,
2013-02-07 08:25:00,34.6,32.9,29.84,ENE,68,0.0,0.4,94,0.00,,,0.09,WUHU216HW,2013-02-07 16:25:00,
2013-02-07 08:30:00,34.6,32.9,29.84,SE,135,0.0,0.4,94,0.00,,,0.09,WUHU216HW,2013-02-07 16:30:00,
2013-02-07 08:35:00,34.7,33.1,29.85,SE,135,0.0,0.0,94,0.00,,,0.09,WUHU216HW,2013-02-07 16:35:00,
2013-02-07 08:40:00,34.6,32.9,29.85,West,270,0.4,0.9,94,0.00,,,0.09,WUHU216HW,2013-02-07 16:40:00,
2013-02-07 08:45:00,34.6,32.9,29.85,West,270,0.0,0.9,94,0.00,,,0.09,WUHU216HW,2013-02-07 16:45:00,
2013-02-07 08:50:00,34.6,32.9,29.85,West,270,0.0,0.0,94,0.00,,,0.09,WUHU216HW,2013-02-07 16:50:00,
2013-02-07 08:55:00,34.9,33.3,29.85,West,270,0.0,0.0,94,0.00,,,0.09,WUHU216HW,2013-02-07 16:55:00,
2013-02-07 09:00:00,35.5,34.1,29.86,ESE,113,0.0,1.3,95,0.00,,,0.09,WUHU216HW,2013-02-07 17:00:00,
2013-02-07 09:05:00,35.8,34.5,29.86,East,90,0.7,1.3,95,0.00,,,0.09,WUHU216HW,2013-02-07 17:05:00,
2013-02-07 09:10:00,36.2,34.6,29.86,SW,225,0.0,0.9,94,0.00,,,0.09,WUHU216HW,2013-02-07 17:10:00,
2013-02-07 09:15:00,36.4,34.7,29.86,SSW,203,0.0,0.9,94,0.00,,,0.09,WUHU216HW,2013-02-07 17:15:00,
2013-02-07 09:20:00,36.7,35.1,29.86,SE,135,0.0,0.0,94,0.00,,,0.09,WUHU216HW,2013-02-07 17:20:00,
2013-02-07 09:25:00,36.9,35.3,29.86,SE,135,0.0,0.0,94,0.00,,,0.09,WUHU216HW,2013-02-07 17:25:00,
2013-02-07 09:30:00,37.3,35.6,29.86,SSE,158,0.0,0.0,94,0.00,,,0.09,WUHU216HW,2013-02-07 17:30:00,
2013-02-07 09:35:00,37.4,35.8,29.86,South,180,0.0,0.0,94,0.00,,,0.09,WUHU216HW,2013-02-07 17:35:00,
2013-02-07 09:40:00,37.8,36.2,29.86,SSE,158,0.0,0.0,94,0.00,,,0.09,WUHU216HW,2013-02-07 17:40:00,
2013-02-07 09:45:00,38.5,36.9,29.86,South,180,0.0,0.0,94,0.00,,,0.09,WUHU216HW,2013-02-07 17:45:00,
2013-02-07 09:50:00,39.2,37.6,29.87,SSE,158,0.0,0.0,94,0.00,,,0.09,WUHU216HW,2013-02-07 17:50:00,
2013-02-07 09:55:00,39.6,38.0,29.87,SSW,203,0.0,0.0,94,0.00,,,0.09,WUHU216HW,2013-02-07 17:55:00,
2013-02-07 10:00:00,39.8,38.2,29.87,SSW,203,0.0,0.0,94,0.00,,,0.09,WUHU216HW,2013-02-07 18:00:00,
2013-02-07 10:05:00,40.1,38.5,29.87,ESE,113,0.0,0.0,94,0.00,,,0.09,WUHU216HW,2013-02-07 18:05:00,
2013-02-07 10:10:00,40.7,39.3,29.87,South,180,0.0,0.0,95,0.00,,,0.09,WUHU216HW,2013-02-07 18:10:00,
2013-02-07 10:15:00,41.0,39.7,29.87,SW,225,0.0,0.9,95,0.00,,,0.09,WUHU216HW,2013-02-07 18:15:00,
2013-02-07 10:20:00,41.9,40.6,29.87,SW,225,0.0,0.9,95,0.00,,,0.09,WUHU216HW,2013-02-07 18:20:00,
2013-02-07 10:25:00,42.5,40.9,29.87,SE,135,0.0,0.9,94,0.00,,,0.09,WUHU216HW,2013-02-07 18:25:00,
2013-02-07 10:30:00,42.8,41.2,29.88,South,180,2.0,2.0,94,0.00,,,0.09,WUHU216HW,2013-02-07 18:30:00,
2013-02-07 10:35:00,42.8,41.0,29.88,SSE,158,2.7,3.4,93,0.00,,,0.09,WUHU216HW,2013-02-07 18:35:00,
2013-02-07 10:40:00,42.8,41.0,29.87,SE,135,1.8,3.4,93,0.00,,,0.09,WUHU216HW,2013-02-07 18:40:00,
2013-02-07 10:45:00,44.5,42.6,29.88,South,180,0.7,3.4,93,0.00,,,0.09,WUHU216HW,2013-02-07 18:45:00,
2013-02-07 10:50:00,45.2,42.8,29.88,South,180,1.8,3.8,91,0.00,,,0.09,WUHU216HW,2013-02-07 18:50:00,
2013-02-07 10:55:00,45.9,43.7,29.88,SW,225,1.1,3.8,92,0.00,,,0.09,WUHU216HW,2013-02-07 18:55:00,
2013-02-07 11:00:00,45.9,43.2,29.88,SSW,203,2.7,3.1,90,0.00,,,0.09,WUHU216HW,2013-02-07 19:00:00,
2013-02-07 11:05:00,45.7,42.4,29.88,WSW,248,1.1,3.1,88,0.00,,,0.09,WUHU216HW,2013-02-07 19:05:00,
2013-02-07 11:10:00,45.4,40.9,29.88,ENE,68,0.4,3.8,84,0.00,,,0.09,WUHU216HW,2013-02-07 19:10:00,
2013-02-07 11:15:00,45.4,40.9,29.88,SE,135,1.6,3.8,84,0.00,,,0.09,WUHU216HW,2013-02-07 19:15:00,
2013-02-07 11:20:00,45.5,41.1,29.88,SE,135,0.4,2.7,84,0.00,,,0.09,WUHU216HW,2013-02-07 19:20:00,
2013-02-07 11:25:00,46.1,41.9,29.88,West,270,3.8,3.8,85,0.00,,,0.09,WUHU216HW,2013-02-07 19:25:00,
2013-02-07 11:30:00,47.2,42.6,29.88,SSW,203,0.9,3.8,84,0.00,,,0.09,WUHU216HW,2013-02-07 19:30:00,
2013-02-07 11:35:00,46.8,40.7,29.88,SSE,158,0.4,3.8,79,0.00,,,0.09,WUHU216HW,2013-02-07 19:35:00,
2013-02-07 11:40:00,46.6,39.8,29.87,SW,225,3.1,4.0,77,0.00,,,0.09,WUHU216HW,2013-02-07 19:40:00,
2013-02-07 11:45:00,45.9,40.8,29.87,SW,225,4.5,4.7,82,0.00,,,0.09,WUHU216HW,2013-02-07 19:45:00,
2013-02-07 11:50:00,45.4,38.6,29.88,SSE,158,2.5,4.7,77,0.00,,,0.09,WUHU216HW,2013-02-07 19:50:00,
2013-02-07 11:55:00,45.0,40.1,29.87,SW,225,2.0,4.5,83,0.00,,,0.09,WUHU216HW,2013-02-07 19:55:00,
2013-02-07 12:00:00,45.9,39.4,29.87,SSE,158,3.4,3.4,78,0.00,,,0.09,WUHU216HW,2013-02-07 20:00:00,
2013-02-07 12:05:00,47.0,40.5,29.87,SSE,158,1.6,3.4,78,0.00,,,0.09,WUHU216HW,2013-02-07 20:05:00,
2013-02-07 12:10:00,46.3,39.2,29.87,ESE,113,0.9,3.1,76,0.00,,,0.09,WUHU216HW,2013-02-07 20:10:00,
2013-02-07 12:15:00,45.7,39.0,29.87,SSE,158,0.0,2.7,77,0.00,,,0.09,WUHU216HW,2013-02-07 20:15:00,
2013-02-07 12:20:00,45.4,38.6,29.87,ESE,113,0.4,2.2,77,0.00,,,0.09,WUHU216HW,2013-02-07 20:20:00,
2013-02-07 12:25:00,45.0,37.5,29.87,WNW,293,1.1,2.2,75,0.00,,,0.09,WUHU216HW,2013-02-07 20:25:00,
2013-02-07 12:30:00,44.8,38.1,29.87,SE,135,0.0,1.3,77,0.00,,,0.09,WUHU216HW,2013-02-07 20:30:00,
2013-02-07 12:35:00,45.0,38.9,29.87,ESE,113,0.4,1.1,79,0.00,,,0.09,WUHU216HW,2013-02-07 20:35:00,
2013-02-07 12:40:00,45.0,37.5,29.87,East,90,0.0,0.7,75,0.00,,,0.09,WUHU216HW,2013-02-07 20:40:00,
2013-02-07 12:45:00,46.1,39.3,29.87,SSE,158,1.8,1.8,77,0.00,,,0.09,WUHU216HW,2013-02-07 20:45:00,
2013-02-07 12:50:00,49.7,42.8,29.87,SW,225,1.1,1.8,77,0.00,,,0.09,WUHU216HW,2013-02-07 20:50:00,
2013-02-07 12:55:00,50.6,38.8,29.86,South,180,4.0,4.0,64,0.00,,,0.09,WUHU216HW,2013-02-07 20:55:00,
2013-02-07 13:00:00,50.9,39.5,29.86,ESE,113,0.7,4.0,65,0.00,,,0.09,WUHU216HW,2013-02-07 21:00:00,
2013-02-07 13:05:00,51.7,39.9,29.86,SSE,158,0.4,4.0,64,0.00,,,0.09,WUHU216HW,2013-02-07 21:05:00,
2013-02-07 13:10:00,51.3,39.5,29.86,ENE,68,0.0,4.0,64,0.00,,,0.09,WUHU216HW,2013-02-07 21:10:00,
2013-02-07 13:15:00,51.8,40.4,29.86,NW,315,0.9,2.5,65,0.00,,,0.09,WUHU216HW,2013-02-07 21:15:00,
2013-02-07 13:20:00,52.7,40.9,29.86,SSE,158,0.9,2.0,64,0.00,,,0.09,WUHU216HW,2013-02-07 21:20:00,
2013-02-07 13:25:00,52.6,36.8,29.86,SSE,158,4.0,4.0,55,0.00,,,0.09,WUHU216HW,2013-02-07 21:25:00,
2013-02-07 13:30:00,51.5,38.4,29.86,South,180,2.5,4.0,61,0.00,,,0.09,WUHU216HW,2013-02-07 21:30:00,
2013-02-07 13:35:00,51.1,37.3,29.86,SSE,158,1.8,5.6,59,0.00,,,0.09,WUHU216HW,2013-02-07 21:35:00,
2013-02-07 13:40:00,50.8,37.8,29.86,SSE,158,1.8,5.6,61,0.00,,,0.09,WUHU216HW,2013-02-07 21:40:00,
2013-02-07 13:45:00,50.0,37.5,29.86,South,180,2.5,5.1,62,0.00,,,0.09,WUHU216HW,2013-02-07 21:45:00,
2013-02-07 13:50:00,49.0,37.3,29.86,SSW,203,4.0,5.1,64,0.00,,,0.09,WUHU216HW,2013-02-07 21:50:00,
2013-02-07 13:55:00,49.7,38.0,29.86,ESE,113,3.4,4.0,64,0.00,,,0.09,WUHU216HW,2013-02-07 21:55:00,
2013-02-07 14:00:00,50.8,37.8,29.86,SSE,158,4.0,4.0,61,0.00,,,0.09,WUHU216HW,2013-02-07 22:00:00,
2013-02-07 14:05:00,50.9,38.3,29.86,SSW,203,2.2,4.7,62,0.00,,,0.09,WUHU216HW,2013-02-07 22:05:00,
2013-02-07 14:10:00,50.4,37.8,29.86,SW,225,4.0,4.7,62,0.00,,,0.09,WUHU216HW,2013-02-07 22:10:00,
2013-02-07 14:15:00,49.7,35.9,29.86,ESE,113,0.2,4.0,59,0.00,,,0.09,WUHU216HW,2013-02-07 22:15:00,
2013-02-07 14:20:00,49.1,36.7,29.86,SSW,203,1.8,4.0,62,0.00,,,0.09,WUHU216HW,2013-02-07 22:20:00,
2013-02-07 14:25:00,49.0,36.1,29.86,SSW,203,2.7,3.4,61,0.00,,,0.09,WUHU216HW,2013-02-07 22:25:00,
2013-02-07 14:30:00,49.0,37.3,29.86,SSW,203,0.2,3.4,64,0.00,,,0.09,WUHU216HW,2013-02-07 22:30:00,
2013-02-07 14:35:00,49.3,37.6,29.86,SSW,203,0.9,2.7,64,0.00,,,0.09,WUHU216HW,2013-02-07 22:35:00,
2013-02-07 14:40:00,49.3,37.6,29.86,South,180,2.2,2.2,64,0.00,,,0.09,WUHU216HW,2013-02-07 22:40:00,
2013-02-07 14:45:00,49.0,37.3,29.86,WNW,293,1.8,2.5,64,0.00,,,0.09,WUHU216HW,2013-02-07 22:45:00,
2013-02-07 14:50:00,48.6,35.5,29.86,NNW,338,1.3,2.9,60,0.00,,,0.09,WUHU216HW,2013-02-07 22:50:00,
2013-02-07 14:55:00,48.4,34.8,29.86,NE,45,1.8,5.1,59,0.00,,,0.09,WUHU216HW,2013-02-07 22:55:00,
2013-02-07 15:00:00,49.0,36.1,29.86,SE,135,0.4,5.1,61,0.00,,,0.09,WUHU216HW,2013-02-07 23:00:00,
2013-02-07 15:05:00,49.3,36.1,29.86,NE,45,1.1,4.0,60,0.00,,,0.09,WUHU216HW,2013-02-07 23:05:00,
2013-02-07 15:10:00,49.0,33.9,29.86,NNE,23,4.9,6.3,56,0.00,,,0.09,WUHU216HW,2013-02-07 23:10:00,
2013-02-07 15:15:00,48.6,35.5,29.87,North,0,2.7,6.3,60,0.00,,,0.09,WUHU216HW,2013-02-07 23:15:00,
2013-02-07 15:20:00,48.4,33.8,29.87,NNW,338,6.0,6.0,57,0.00,,,0.09,WUHU216HW,2013-02-07 23:20:00,
2013-02-07 15:25:00,48.6,34.0,29.87,North,0,3.1,6.0,57,0.00,,,0.09,WUHU216HW,2013-02-07 23:25:00,
2013-02-07 15:30:00,49.3,35.2,29.87,North,0,3.1,6.0,58,0.00,,,0.09,WUHU216HW,2013-02-07 23:30:00,
2013-02-07 15:35:00,50.4,35.3,29.87,NW,315,0.7,4.5,56,0.00,,,0.09,WUHU216HW,2013-02-07 23:35:00,
2013-02-07 15:40:00,50.9,35.3,29.87,ESE,113,0.0,4.5,55,0.00,,,0.09,WUHU216HW,2013-02-07 23:40:00,
2013-02-07 15:45:00,52.0,37.2,29.87,North,0,1.1,2.5,57,0.00,,,0.09,WUHU216HW,2013-02-07 23:45:00,
2013-02-07 15:50:00,52.2,36.0,29.87,SSW,203,0.0,2.7,54,0.00,,,0.09,WUHU216HW,2013-02-07 23:50:00,
2013-02-07 15:55:00,52.9,35.7,29.87,WSW,248,2.2,2.7,52,0.00,,,0.09,WUHU216HW,2013-02-07 23:55:00,
2013-02-07 16:00:00,52.0,36.3,29.87,NNW,338,1.6,2.2,55,0.00,,,0.09,WUHU216HW,2013-02-08 00:00:00,
2013-02-07 16:05:00,51.1,35.0,29.87,NW,315,3.4,3.4,54,0.00,,,0.09,WUHU216HW,2013-02-08 00:05:00,
2013-02-07 16:10:00,49.9,35.2,29.87,North,0,1.3,5.1,57,0.00,,,0.09,WUHU216HW,2013-02-08 00:10:00,
2013-02-07 16:15:00,49.0,35.3,29.88,NW,315,1.3,5.1,59,0.00,,,0.09,WUHU216HW,2013-02-08 00:15:00,
2013-02-07 16:20:00,48.6,35.5,29.88,SW,225,1.1,3.6,60,0.00,,,0.09,WUHU216HW,2013-02-08 00:20:00,
2013-02-07 16:25:00,48.1,34.9,29.88,NW,315,3.4,3.4,60,0.00,,,0.09,WUHU216HW,2013-02-08 00:25:00,
2013-02-07 16:30:00,47.7,34.1,29.88,WNW,293,0.4,3.4,59,0.00,,,0.09,WUHU216HW,2013-02-08 00:30:00,
2013-02-07 16:35:00,47.5,34.7,29.88,WNW,293,1.1,3.4,61,0.00,,,0.09,WUHU216HW,2013-02-08 00:35:00,
2013-02-07 16:40:00,47.2,34.4,29.89,NNW,338,1.1,3.6,61,0.00,,,0.09,WUHU216HW,2013-02-08 00:40:00,
2013-02-07 16:45:00,46.6,33.8,29.89,NW,315,0.7,3.6,61,0.00,,,0.09,WUHU216HW,2013-02-08 00:45:00,
2013-02-07 16:50:00,46.3,34.3,29.89,NNW,338,0.2,2.5,63,0.00,,,0.09,WUHU216HW,2013-02-08 00:50:00,
2013-02-07 16:55:00,45.7,34.6,29.89,North,0,0.0,0.7,65,0.00,,,0.09,WUHU216HW,2013-02-08 00:55:00,
2013-02-07 17:00:00,44.8,36.4,29.90,NNE,23,0.4,0.9,72,0.00,,,0.09,WUHU216HW,2013-02-08 01:00:00,
2013-02-07 17:05:00,44.1,35.3,29.90,NNE,23,0.0,0.9,71,0.00,,,0.09,WUHU216HW,2013-02-08 01:05:00,
2013-02-07 17:10:00,43.4,35.3,29.90,NNE,23,0.0,0.4,73,0.00,,,0.09,WUHU216HW,2013-02-08 01:10:00,
2013-02-07 17:15:00,42.7,36.5,29.90,NNE,23,0.0,0.0,79,0.00,,,0.09,WUHU216HW,2013-02-08 01:15:00,
2013-02-07 17:20:00,42.1,36.6,29.91,NE,45,0.0,0.2,81,0.00,,,0.09,WUHU216HW,2013-02-08 01:20:00,
2013-02-07 17:25:00,41.4,35.0,29.91,NE,45,0.0,0.2,78,0.00,,,0.09,WUHU216HW,2013-02-08 01:25:00,
2013-02-07 17:30:00,40.7,34.9,29.91,NE,45,0.0,0.0,80,0.00,,,0.09,WUHU216HW,2013-02-08 01:30:00,
2013-02-07 17:35:00,40.1,35.4,29.91,NE,45,0.0,0.0,83,0.00,,,0.09,WUHU216HW,2013-02-08 01:35:00,
2013-02-07 17:40:00,39.8,34.5,29.91,ESE,113,0.0,0.0,81,0.00,,,0.09,WUHU216HW,2013-02-08 01:40:00,
2013-02-07 17:45:00,39.6,34.0,29.91,SSE,158,0.0,0.0,80,0.00,,,0.09,WUHU216HW,2013-02-08 01:45:00,
2013-02-07 17:50:00,39.2,33.7,29.91,SSE,158,0.0,0.0,80,0.00,,,0.09,WUHU216HW,2013-02-08 01:50:00,
2013-02-07 17:55:00,38.5,33.9,29.91,SSE,158,0.0,0.0,83,0.00,,,0.09,WUHU216HW,2013-02-08 01:55:00,
2013-02-07 18:00:00,38.2,33.5,29.91,SE,135,0.0,0.0,83,0.00,,,0.09,WUHU216HW,2013-02-08 02:00:00,
2013-02-07 18:05:00,37.8,33.4,29.92,East,90,0.0,0.0,84,0.00,,,0.09,WUHU216HW,2013-02-08 02:05:00,
2013-02-07 18:10:00,37.1,32.7,29.92,East,90,0.0,0.0,84,0.00,,,0.09,WUHU216HW,2013-02-08 02:10:00,
2013-02-07 18:15:00,36.7,32.1,29.92,SSE,158,0.0,0.0,83,0.00,,,0.09,WUHU216HW,2013-02-08 02:15:00,
2013-02-07 18:20:00,36.5,32.1,29.92,SSW,203,0.0,0.0,84,0.00,,,0.09,WUHU216HW,2013-02-08 02:20:00,
2013-02-07 18:25:00,36.4,32.8,29.92,SE,135,0.0,0.0,87,0.00,,,0.09,WUHU216HW,2013-02-08 02:25:00,
2013-02-07 18:30:00,36.2,33.0,29.92,ENE,68,0.4,0.7,88,0.00,,,0.09,WUHU216HW,2013-02-08 02:30:00,
2013-02-07 18:35:00,35.6,31.8,29.92,ENE,68,0.0,0.7,86,0.00,,,0.09,WUHU216HW,2013-02-08 02:35:00,
2013-02-07 18:40:00,35.5,31.6,29.93,SSE,158,0.0,0.4,86,0.00,,,0.09,WUHU216HW,2013-02-08 02:40:00,
2013-02-07 18:45:00,35.1,31.5,29.93,SSE,158,0.0,0.0,87,0.00,,,0.09,WUHU216HW,2013-02-08 02:45:00,
2013-02-07 18:50:00,34.9,31.1,29.93,SSE,158,0.0,0.0,86,0.00,,,0.09,WUHU216HW,2013-02-08 02:50:00,
2013-02-07 18:55:00,34.7,30.9,29.93,South,180,0.0,0.0,86,0.00,,,0.09,WUHU216HW,2013-02-08 02:55:00,
2013-02-07 19:00:00,34.4,31.2,29.93,South,180,0.0,0.0,88,0.00,,,0.09,WUHU216HW,2013-02-08 03:00:00,
2013-02-07 19:05:00,34.2,31.0,29.93,South,180,0.0,0.0,88,0.00,,,0.09,WUHU216HW,2013-02-08 03:05:00,
2013-02-07 19:10:00,34.0,31.1,29.93,South,180,0.0,0.0,89,0.00,,,0.09,WUHU216HW,2013-02-08 03:10:00,
2013-02-07 19:15:00,33.8,30.9,29.93,South,180,0.0,0.0,89,0.00,,,0.09,WUHU216HW,2013-02-08 03:15:00,
2013-02-07 19:20:00,33.5,30.8,29.94,South,180,0.0,0.0,90,0.00,,,0.09,WUHU216HW,2013-02-08 03:20:00,
2013-02-07 19:25:00,33.5,30.5,29.94,South,180,0.0,0.0,89,0.00,,,0.09,WUHU216HW,2013-02-08 03:25:00,
2013-02-07 19:30:00,33.5,30.2,29.94,South,180,0.0,0.0,88,0.00,,,0.09,WUHU216HW,2013-02-08 03:30:00,
2013-02-07 19:35:00,33.1,30.5,29.94,South,180,1.1,1.1,90,0.00,,,0.09,WUHU216HW,2013-02-08 03:35:00,
2013-02-07 19:40:00,32.8,30.4,29.94,ENE,68,0.2,1.6,91,0.00,,,0.09,WUHU216HW,2013-02-08 03:40:00,
2013-02-07 19:45:00,32.8,30.2,29.94,SSE,158,0.0,1.6,90,0.00,,,0.09,WUHU216HW,2013-02-08 03:45:00,
2013-02-07 19:50:00,32.8,29.9,29.95,SSW,203,0.9,1.3,89,0.00,,,0.09,WUHU216HW,2013-02-08 03:50:00,
2013-02-07 19:55:00,32.4,29.5,29.95,SSW,203,0.0,1.3,89,0.00,,,0.09,WUHU216HW,2013-02-08 03:55:00,
2013-02-07 20:00:00,32.0,29.5,29.95,SSW,203,0.0,0.9,90,0.00,,,0.09,WUHU216HW,2013-02-08 04:00:00,
2013-02-07 20:05:00,31.9,29.1,29.95,SSW,203,0.0,0.0,89,0.00,,,0.09,WUHU216HW,2013-02-08 04:05:00,
2013-02-07 20:10:00,31.9,29.6,29.95,SSW,203,0.0,0.0,91,0.00,,,0.09,WUHU216HW,2013-02-08 04:10:00,
2013-02-07 20:15:00,31.9,29.1,29.96,SSW,203,0.0,0.0,89,0.00,,,0.09,WUHU216HW,2013-02-08 04:15:00,
2013-02-07 20:20:00,31.3,28.8,29.96,SSW,203,0.0,0.0,90,0.00,,,0.09,WUHU216HW,2013-02-08 04:20:00,
2013-02-07 20:25:00,31.3,29.1,29.96,SSW,203,0.0,0.0,91,0.00,,,0.09,WUHU216HW,2013-02-08 04:25:00,
2013-02-07 20:30:00,31.3,28.5,29.96,SSW,203,0.0,0.0,89,0.00,,,0.09,WUHU216HW,2013-02-08 04:30:00,
2013-02-07 20:35:00,31.1,28.6,29.96,SSW,203,0.0,0.0,90,0.00,,,0.09,WUHU216HW,2013-02-08 04:35:00,
2013-02-07 20:40:00,30.8,28.3,29.96,SSW,203,0.0,0.0,90,0.00,,,0.09,WUHU216HW,2013-02-08 04:40:00,
2013-02-07 20:45:00,30.8,28.5,29.97,SSW,203,0.0,0.0,91,0.00,,,0.09,WUHU216HW,2013-02-08 04:45:00,
2013-02-07 20:50:00,30.6,28.4,29.97,SSW,203,0.0,0.0,91,0.00,,,0.09,WUHU216HW,2013-02-08 04:50:00,
2013-02-07 20:55:00,30.4,27.9,29.97,SSW,203,0.0,0.0,90,0.00,,,0.09,WUHU216HW,2013-02-08 04:55:00,
2013-02-07 21:00:00,30.4,27.9,29.97,SSW,203,0.0,0.0,90,0.00,,,0.09,WUHU216HW,2013-02-08 05:00:00,
2013-02-07 21:01:00,30.2,27.7,29.97,SSW,203,0.0,0.0,90,0.00,,,0.09,WUHU216HW,2013-02-08 05:01:00,
2013-02-07 21:06:00,30.2,28.0,29.98,SSW,203,0.0,0.0,91,0.00,,,0.09,WUHU216HW,2013-02-08 05:06:00,
2013-02-07 21:11:00,30.2,27.7,29.97,SSW,203,0.0,0.0,90,0.00,,,0.09,WUHU216HW,2013-02-08 05:11:00,
2013-02-07 21:16:00,30.4,28.2,29.98,SSE,158,0.0,0.0,91,0.00,,,0.09,WUHU216HW,2013-02-08 05:16:00,
2013-02-07 21:21:00,30.2,28.0,29.98,NNW,338,0.0,0.9,91,0.00,,,0.09,WUHU216HW,2013-02-08 05:21:00,
2013-02-07 21:26:00,29.9,27.6,29.98,North,0,0.0,0.9,91,0.00,,,0.09,WUHU216HW,2013-02-08 05:26:00,
2013-02-07 21:31:00,29.9,27.6,29.99,NNE,23,0.0,0.0,91,0.00,,,0.09,WUHU216HW,2013-02-08 05:31:00,
2013-02-07 21:36:00,29.7,27.5,29.99,NNE,23,0.0,0.0,91,0.00,,,0.09,WUHU216HW,2013-02-08 05:36:00,
2013-02-07 21:41:00,29.5,27.3,29.99,NNE,23,0.0,0.0,91,0.00,,,0.09,WUHU216HW,2013-02-08 05:41:00,
2013-02-07 21:46:00,29.5,27.3,29.99,SSE,158,0.4,0.4,91,0.00,,,0.09,WUHU216HW,2013-02-08 05:46:00,
2013-02-07 21:51:00,29.7,27.2,29.99,SSW,203,0.0,0.4,90,0.00,,,0.09,WUHU216HW,2013-02-08 05:51:00,
2013-02-07 21:56:00,29.5,27.3,29.99,SSE,158,0.4,0.7,91,0.00,,,0.09,WUHU216HW,2013-02-08 05:56:00,
2013-02-07 22:01:00,29.3,27.1,29.99,ENE,68,0.0,0.7,91,0.00,,,0.09,WUHU216HW,2013-02-08 06:01:00,
2013-02-07 22:06:00,29.3,27.1,29.99,ENE,68,0.0,0.4,91,0.00,,,0.09,WUHU216HW,2013-02-08 06:06:00,
2013-02-07 22:11:00,29.3,27.1,30.00,SSW,203,0.2,0.7,91,0.00,,,0.09,WUHU216HW,2013-02-08 06:11:00,
2013-02-07 22:16:00,29.3,27.1,30.00,SSE,158,0.0,0.7,91,0.00,,,0.09,WUHU216HW,2013-02-08 06:16:00,
2013-02-07 22:21:00,29.2,26.9,30.00,SSE,158,0.0,0.7,91,0.00,,,0.09,WUHU216HW,2013-02-08 06:21:00,
2013-02-07 22:26:00,29.2,26.9,30.00,SSE,158,0.0,0.0,91,0.00,,,0.09,WUHU216HW,2013-02-08 06:26:00,
2013-02-07 22:31:00,28.8,26.6,30.00,SSE,158,0.0,0.0,91,0.00,,,0.09,WUHU216HW,2013-02-08 06:31:00,
2013-02-07 22:36:00,29.0,26.7,30.00,SSE,158,0.2,0.2,91,0.00,,,0.09,WUHU216HW,2013-02-08 06:36:00,
2013-02-07 22:41:00,29.0,26.7,30.00,SSE,158,0.0,0.4,91,0.00,,,0.09,WUHU216HW,2013-02-08 06:41:00,
2013-02-07 22:46:00,28.8,26.6,30.01,SSE,158,0.0,0.4,91,0.00,,,0.09,WUHU216HW,2013-02-08 06:46:00,
2013-02-07 22:51:00,28.4,26.2,30.01,SSE,158,0.0,0.4,91,0.00,,,0.09,WUHU216HW,2013-02-08 06:51:00,
2013-02-07 22:56:00,28.6,26.4,30.01,SSE,158,0.0,0.4,91,0.00,,,0.09,WUHU216HW,2013-02-08 06:56:00,
2013-02-07 23:01:00,28.4,26.2,30.01,SSE,158,0.0,0.4,91,0.00,,,0.09,WUHU216HW,2013-02-08 07:01:00,
2013-02-07 23:06:00,28.6,26.7,30.01,SSE,158,0.0,0.0,92,0.00,,,0.09,WUHU216HW,2013-02-08 07:06:00,
2013-02-07 23:11:00,28.6,26.4,30.01,SSE,158,0.0,0.0,91,0.00,,,0.09,WUHU216HW,2013-02-08 07:11:00,
2013-02-07 23:16:00,28.6,26.4,30.01,SSE,158,0.0,0.0,91,0.00,,,0.09,WUHU216HW,2013-02-08 07:16:00,
2013-02-07 23:21:00,28.8,26.6,30.01,SSE,158,0.0,0.0,91,0.00,,,0.09,WUHU216HW,2013-02-08 07:21:00,
2013-02-07 23:26:00,28.6,26.4,30.02,SSE,158,0.0,0.0,91,0.00,,,0.09,WUHU216HW,2013-02-08 07:26:00,
2013-02-07 23:31:00,28.6,26.4,30.02,SSE,158,0.0,0.0,91,0.00,,,0.09,WUHU216HW,2013-02-08 07:31:00,
2013-02-07 23:36:00,28.4,26.2,30.02,SSE,158,0.0,0.0,91,0.00,,,0.09,WUHU216HW,2013-02-08 07:36:00,
2013-02-07 23:41:00,28.4,26.2,30.02,SSE,158,0.0,0.0,91,0.00,,,0.09,WUHU216HW,2013-02-08 07:41:00,
2013-02-07 23:46:00,28.3,26.0,30.02,SSE,158,0.0,0.0,91,0.00,,,0.09,WUHU216HW,2013-02-08 07:46:00,
2013-02-07 23:51:00,28.1,26.1,30.03,NE,45,0.0,0.0,92,0.00,,,0.09,WUHU216HW,2013-02-08 07:51:00,
2013-02-07 23:56:00,28.1,25.8,30.03,NE,45,0.0,0.0,91,0.00,,,0.09,WUHU216HW,2013-02-08 07:56:00,